Regional Weather Roundup
Issued by NWS

Home | Current Version | Previous Version | Text Only | Print | Product List | Glossary Off
Versions: 1 2 3 4 5 6 7 8 9 10 11 12 13 14 15 16 17 18 19 20 21 22 23 24 25 26 27 28 29 30 31 32 33 34 35 36 37 38 39 40 41 42 43 44 45 46 47 48 49 50

000
ASUS43 KLOT 290808
RWRIL

ILLINOIS REGIONAL WEATHER ROUNDUP
NATIONAL WEATHER SERVICE CHICAGO/ROMEOVILLE IL
300 AM CDT SAT APR 29 2017

NOTE: "FAIR" INDICATES FEW OR NO CLOUDS BELOW 12,000 FEET WITH NO
SIGNIFICANT WEATHER AND/OR OBSTRUCTIONS TO VISIBILITY.

* THESE STATIONS ARE NOT UNDER NWS QUALITY CONTROL. THEY ALSO MAY NOT
  REPORT WEATHER SUCH AS PRECIPITATION OR FOG.

ILZ001-002-007-009-015-016-024-290900-
NORTHWEST ILLINOIS

CITY           SKY/WX    TMP DP  RH WIND       PRES   REMARKS
MOLINE         CLOUDY    47  42  83 NE10      29.98F
STERLING*      CLOUDY    47  43  86 NE14G21   30.02F
SAVANNA*       RAIN      45  41  86 NE9       30.06R
$$

ILZ003-004-008-010-011-017-018-290900-
NORTH CENTRAL ILLINOIS

CITY           SKY/WX    TMP DP  RH WIND       PRES   REMARKS
ROCKFORD       CLOUDY    48  42  80 NE13      30.06R
FREEPORT*      CLOUDY    44  40  86 E10       30.11R
ROCHELLE*      CLOUDY    46  43  89 NE18G24   30.04F
DE KALB*       CLOUDY    46  42  87 NE15      30.04F
PERU*          CLOUDY    47  41  78 NE15G24   29.99F
$$

ILZ005-006-012>014-019>023-290900-
NORTHEAST ILLINOIS

CITY           SKY/WX    TMP DP  RH WIND       PRES   REMARKS
CHICAGO-OHARE  CLOUDY    46  39  76 NE13      30.06R
CHICAGO-MIDWAY DRIZZLE   45  43  93 N17       30.03F FOG
AURORA         CLOUDY    47  42  83 NE13      30.04S
LANSING*       MOCLDY    46  42  83 N9G20     30.00F
JOLIET*        CLOUDY    48  42  79 NE14G23   30.00F
WAUKEGAN       CLOUDY    43  39  86 N12       30.08R
DUPAGE AIRPORT CLOUDY    46  42  86 NE14G21   30.04R
KANKAKEE*      CLOUDY    47  40  77 N13G24    29.97S
WHEELING       CLOUDY    44  40  85 NE8       30.08R
MORRIS*        CLOUDY    47  41  81 NE7       29.99F
ROMEOVILLE*    CLOUDY    46  42  89 NE24G30   29.99F
NORTHERLY ISL    N/A     44  41  89 MISG        N/A
$$

LMZ740>746-290900-
SOUTHERN LAKE MICHIGAN

STATION/POSITION SKY/WX   TEMP    WIND        PRES    VSBY  WAVE
                          AIR SEA DIR/SP/G                  HT/PER
                          (F)     (DEG/KT/KT) (MB)    (MI)  (FT/S)
SOUTHERN BUOY              43 41   30/ 14/ 16 1016.7          2/ 4
HARRISON CRIB              44      20/ 16/ 17   N/A
BURNHAM HARBOR             44     360/ 16       N/A
CALUMET HARBOR             44     350/ 14/ 19 1016.4R
BURNS HARBOR               47      50/ 14/ 18 1016.6F
MICHIGAN CITY              45      30/ 18/ 19   N/A
MICHIGAN CITY 6N           45 46                N/A           4/ 4
ST. JOSEPH                 48 49   40/ 16/ 21 1016.7          4/ 4
$$

ILZ025>027-034>036-040-047-049-050-058-095>099-290900-
WEST-CENTRAL ILLINOIS

CITY           SKY/WX    TMP DP  RH WIND       PRES   REMARKS
QUINCY         FOG       51  51 100 N13       29.92R VSB 3/4
GALESBURG*     CLOUDY    47  46  95 NE15      29.96S
MACOMB*        CLOUDY    49  49  98 NE16      29.98R FOG
JACKSONVILLE*  CLOUDY    55  54  96 NE8       29.92R FOG
PITTSFIELD*    CLOUDY    56  56  98 E7        29.93R THUNDER FOG
$$

ILZ028>032-037-038-041>044-048-051>054-059>061-290900-
CENTRAL ILLINOIS

CITY           SKY/WX    TMP DP  RH WIND       PRES   REMARKS
PONTIAC        MOCLDY    49  46  89 NE18      29.95F
BLOOMINGTON    CLOUDY    53  52  96 NE14      29.94R FOG
DECATUR        TSTM      55  55 100 NE5       29.94R FOG
PEORIA         CLOUDY    54  52  93 NE10      29.94F FOG
LACON*         CLOUDY    49  45  84 NE8G17    29.96S
LINCOLN*       CLOUDY    56  55  98 CALM      29.94R FOG
SPRINGFIELD    CLOUDY    57  54  89 NE5       29.93R
TAYLORVILLE    CLOUDY    55  55  99 NE8       29.91F FOG
$$

ILZ033-039-045-046-055>057-062-063-290900-
EAST-CENTRAL ILLINOIS

CITY           SKY/WX    TMP DP  RH WIND       PRES   REMARKS
CHAMPAIGN      LGT RAIN  56  53  90 E5        29.95R FOG
RANTOUL*       CLOUDY    56  55  97 NE9       29.93R FOG
MATTOON        CLOUDY    55  55 100 N9        29.89F FOG
PARIS*         CLOUDY    55  55 100 NE7       29.93S THUNDER FOG
$$

ILZ079-100>102-290900-
SOUTHWEST ILLINOIS

CITY           SKY/WX    TMP DP  RH WIND       PRES   REMARKS
ALTON          TSTM      56  55  98 NE6       29.88S
BELLEVILLE     LGT RAIN  58  58 100 NE6       29.84R FOG
CAHOKIA*       TSTM      59  56  89 E7        29.85F FOG
SPARTA*        TSTM      59  59 100 E13       29.81F
$$

ILZ064>066-069>071-074>076-080>082-084>086-088>090-092>094-290900-
SOUTH-CENTRAL ILLINOIS

CITY           SKY/WX    TMP DP  RH WIND       PRES   REMARKS
CARBONDALE     RAIN      62  62 100 E12G32    29.83F VSB 3/4
CAIRO*         CLOUDY    73  70  89 S5        29.80S
EFFINGHAM*     TSTM      57  57 100 SW3       29.96R
MARION         TSTM      64  64 100 NE13      29.82F
MT. VERNON     TSTM      59  58  96 NE5       29.87F FOG
CENTRALIA*     TSTM      59  59 100 E5        29.88F
SALEM*         TSTM      59  57  94 SE5       29.91R
METROPOLIS*    CLOUDY    75  69  83 S6        29.82F
$$

ILZ067-068-072-073-078-083-087-091-290900-
SOUTHEAST ILLINOIS

CITY           SKY/WX    TMP DP  RH WIND       PRES   REMARKS
LAWRENCEVILLE  CLOUDY    59  59 100 N6        29.88F FOG
FLORA*         RAIN      59  58  98 N6        29.88F
FAIRFIELD*     TSTM      59  59 100 NE5       29.84F
HARRISBURG*    CLOUDY    65  65 100 E8        29.83F
ROBINSON*      TSTM      57  57 100 N9        29.91S
CARMI*         CLOUDY    64  64 100 NE10      29.82F FOG
$$

ABBREVIATIONS USED IN REMARKS
   TC - TEMPERATURE IN CELSIUS
  WCI - WIND CHILL INDEX
   HX - HEAT INDEX
  VSB - VISIBILITY
$$




USA.gov is the U.S. government's official web portal to all federal, state and local government web resources and services.